Content
SEND FEEDBACK

Daily
Averages
Monthly
Summary
United States of America

FAYETTEVILLE, TENNESSEE


Home > North America > United States > Tennessee
Elevation: 700 feet     Latitude: 35 10N     Longitude: 086 33W

WEATHER
 
SELECT A DAY
Number of Records: 303,942;   Date Range: 4/22/02 - 9/29/14
 
SHARE

PRINT THIS DATA

[ ← Previous Day ]
WEATHER ALMANAC - NOVEMBER 16, 2013
[ Next Day → ]
[ °C ]   °F
Weather ElementAverageHighLow
Temperature58.5 °F64.4 °F (1:35 pm)50 °F (12:35 am)
Dewpoint51.1 °F53.6 °F (2:15 pm)46.4 °F (12:35 am)
Humidity77.3 %100 % (6:15 am)64 % (1:35 pm)
Barometer30.09 in30.15 in (9:15 am)30.04 in (11:15 pm)
Wind Speed6.2 mph13.8 mph (8:35 pm)
Wind Gust21.9 mph (10:15 pm)
Weather ElementAverage
Visibility7.8 mi
Wind DirectionE (93.1 °)

Weather ElementTotal
Precipitation---
Heating Degree Days7.8 (Base 65)
Growing Degree Days7.2 (Base 50)
Averaged from 71 records on November 16, 2013
WEATHER CONDITIONS BREAKOUT
WIND DIRECTION BREAKOUT
WEATHER BY HOUR - NOVEMBER 16, 2013
[ °C ]   °F
Local TimeTemperatureDewpointHumidityBarometerVisibilityWind DirectionWind SpeedGust SpeedPrecipitationEventsConditions
12:35 AM50.0 °F46.4 °F87 %30.13 in5.0 miCalmOvercast
12:55 AM50.0 °F46.4 °F87 %30.12 in4.0 miCalmOvercast
1:15 AM51.8 °F48.2 °F88 %30.12 in4.0 miCalmOvercast
1:35 AM51.8 °F46.4 °F82 %30.12 in4.0 miCalmOvercast
1:55 AM51.8 °F46.4 °F82 %30.11 in4.0 miCalmOvercast
2:15 AM51.8 °F48.2 °F88 %30.11 in4.0 miCalmOvercast
2:35 AM51.8 °F48.2 °F88 %30.11 in4.0 miCalmOvercast
2:55 AM51.8 °F48.2 °F88 %30.12 in5.0 miCalmOvercast
3:15 AM51.8 °F48.2 °F88 %30.12 in4.0 miCalmMostly Cloudy
3:35 AM51.8 °F48.2 °F88 %30.12 in4.0 miCalmOvercast
3:55 AM51.8 °F48.2 °F88 %30.12 in4.0 miCalmOvercast
4:15 AM51.8 °F48.2 °F88 %30.12 in4.0 miCalmOvercast
4:35 AM51.8 °F50.0 °F94 %30.12 in4.0 miCalmOvercast
4:55 AM51.8 °F50.0 °F94 %30.12 in3.0 miCalmOvercast
5:15 AM51.8 °F50.0 °F94 %30.13 in3.0 miCalmOvercast
5:35 AM51.8 °F50.0 °F94 %30.13 in3.0 miCalmOvercast
5:55 AM51.8 °F50.0 °F94 %30.14 in3.0 miCalmOvercast
6:15 AM51.8 °F51.8 °F100 %30.14 in3.0 miCalmOvercast
6:35 AM51.8 °F51.8 °F100 %30.14 in3.0 miCalmOvercast
6:55 AM51.8 °F51.8 °F100 %30.14 in2.5 miCalmOvercast
7:15 AM53.6 °F51.8 °F94 %30.14 in3.0 miCalmOvercast
7:35 AM53.6 °F50.0 °F88 %30.14 in4.0 miCalmMostly Cloudy
7:55 AM53.6 °F50.0 °F88 %30.14 in5.0 miCalmMostly Cloudy
8:15 AM55.4 °F50.0 °F82 %30.14 in5.0 miSE (140°)4.6 mphHaze
8:35 AM55.4 °F50.0 °F82 %30.14 in7.0 miCalmMostly Cloudy
8:55 AM57.2 °F50.0 °F77 %30.14 in7.0 miCalmMostly Cloudy
9:15 AM57.2 °F51.8 °F82 %30.15 in7.0 miCalmMostly Cloudy
9:35 AM59.0 °F51.8 °F77 %30.15 in10.0 miSE (140°)9.2 mphMostly Cloudy
9:55 AM59.0 °F51.8 °F77 %30.14 in10.0 miSE (140°)9.2 mph17.3 mphMostly Cloudy
10:15 AM60.8 °F51.8 °F72 %30.14 in10.0 miSE (140°)11.5 mph20.7 mphMostly Cloudy
10:35 AM60.8 °F51.8 °F72 %30.15 in10.0 miSSE (150°)9.2 mph18.4 mphMostly Cloudy
10:55 AM62.6 °F51.8 °F68 %30.13 in10.0 miSSE (160°)9.2 mphOvercast
11:15 AM60.8 °F51.8 °F72 %30.13 in10.0 miSSE (160°)12.7 mph18.4 mphOvercast
11:35 AM60.8 °F51.8 °F72 %30.11 in10.0 miSE (140°)9.2 mphOvercast
11:55 AM60.8 °F51.8 °F72 %30.10 in10.0 miSE (140°)11.5 mphOvercast
12:15 PM60.8 °F51.8 °F72 %30.09 in10.0 miSE (140°)9.2 mph17.3 mphOvercast
12:35 PM62.6 °F51.8 °F68 %30.08 in10.0 miSSE (150°)9.2 mphOvercast
12:55 PM62.6 °F51.8 °F68 %30.07 in10.0 miSSE (150°)11.5 mph16.1 mphOvercast
1:15 PM62.6 °F51.8 °F68 %30.06 in10.0 miSE (140°)10.4 mphOvercast
1:35 PM64.4 °F51.8 °F64 %30.06 in10.0 miSSE (150°)11.5 mph17.3 mphOvercast
1:55 PM62.6 °F51.8 °F68 %30.06 in10.0 miSSE (150°)10.4 mph17.3 mphOvercast
2:15 PM62.6 °F53.6 °F72 %30.06 in10.0 miSSE (150°)8.1 mph16.1 mphOvercast
2:35 PM62.6 °F53.6 °F72 %30.05 in10.0 miSSE (150°)10.4 mphOvercast
2:55 PM62.6 °F53.6 °F72 %30.05 in10.0 miSE (140°)6.9 mphOvercast
3:15 PM62.6 °F51.8 °F68 %30.05 in10.0 miSSE (150°)11.5 mph16.1 mphOvercast
3:35 PM62.6 °F53.6 °F72 %30.05 in10.0 miSE (140°)8.1 mphMostly Cloudy
3:55 PM62.6 °F53.6 °F72 %30.05 in10.0 miSE (140°)11.5 mph17.3 mphOvercast
4:15 PM62.6 °F53.6 °F72 %30.05 in10.0 miSSE (150°)9.2 mphOvercast
4:35 PM62.6 °F51.8 °F68 %30.06 in10.0 miSE (140°)6.9 mphOvercast
4:55 PM62.6 °F51.8 °F68 %30.06 in10.0 miSSE (160°)5.8 mphOvercast
5:15 PM62.6 °F53.6 °F72 %30.06 in10.0 miSE (140°)8.1 mphMostly Cloudy
5:35 PM62.6 °F53.6 °F72 %30.06 in10.0 miSSE (150°)5.8 mphMostly Cloudy
5:55 PM62.6 °F53.6 °F72 %30.06 in10.0 miSE (140°)9.2 mphOvercast
6:15 PM62.6 °F53.6 °F72 %30.07 in10.0 miSE (140°)10.4 mphOvercast
6:35 PM62.6 °F53.6 °F72 %30.07 in10.0 miSE (130°)8.1 mphOvercast
6:55 PM62.6 °F51.8 °F68 %30.07 in10.0 miSE (130°)10.4 mph19.6 mphOvercast
7:15 PM62.6 °F51.8 °F68 %30.07 in10.0 miSSE (150°)12.7 mph19.6 mphOvercast
7:35 PM62.6 °F51.8 °F68 %30.08 in10.0 miSSE (150°)9.2 mphOvercast
7:55 PM62.6 °F51.8 °F68 %30.06 in10.0 miSSE (150°)8.1 mph16.1 mphOvercast
8:15 PM62.6 °F51.8 °F68 %30.07 in10.0 miSSE (160°)8.1 mph17.3 mphOvercast
8:35 PM62.6 °F51.8 °F68 %30.07 in10.0 miSSE (150°)13.8 mph20.7 mphOvercast
8:55 PM62.6 °F51.8 °F68 %30.07 in10.0 miSSE (150°)10.4 mph17.3 mphOvercast
9:15 PM62.6 °F51.8 °F68 %30.06 in10.0 miSSE (150°)11.5 mphOvercast
9:35 PM62.6 °F51.8 °F68 %30.06 in10.0 miSSE (150°)8.1 mphMostly Cloudy
9:55 PM62.6 °F51.8 °F68 %30.05 in10.0 miSSE (150°)9.2 mphOvercast
10:15 PM62.6 °F51.8 °F68 %30.05 in10.0 miSSE (150°)11.5 mph21.9 mphOvercast
10:35 PM62.6 °F51.8 °F68 %30.05 in10.0 miSSE (150°)13.8 mph20.7 mphOvercast
10:55 PM62.6 °F51.8 °F68 %30.05 in10.0 miSSE (160°)10.4 mph17.3 mphOvercast
11:15 PM62.6 °F51.8 °F68 %30.04 in10.0 miSSE (150°)11.5 mph18.4 mphOvercast
11:35 PM62.6 °F51.8 °F68 %30.04 in10.0 miSSE (150°)11.5 mph18.4 mphOvercast
11:55 PM60.8 °F53.6 °F77 %30.04 in10.0 miSSE (150°)9.2 mph16.1 mphOvercast
Hourly data recorded from KMDQ, located miles away from Fayetteville, Tennessee







STORIES FROM OUR PARTNERS